Regional Weather Roundup
Issued by NWS Upton, NY

Current Version | Previous Version | Text Only | Print | Product List | Glossary On
Versions: 1 2 3 4 5 6 7 8 9 10 11 12 13 14 15 16 17 18 19 20 21 22 23 24 25 26 27 28 29 30 31 32 33 34 35 36 37 38 39 40 41 42 43 44 45 46 47
000
ASUS41 KOKX 262105
RWROKX

REGIONAL WEATHER ROUNDUP
NATIONAL WEATHER SERVICE NEW YORK NY
400 PM EST FRI DEC 26 2014

NOTE: "FAIR" INDICATES FEW OR NO CLOUDS BELOW 12,000 FEET WITH NO
SIGNIFICANT WEATHER AND/OR OBSTRUCTIONS TO VISIBILITY.

NYZ071-072-176-178-NJZ106-104-262200-
NEW YORK CITY METRO AREA


CITY           SKY/WX    TMP DP  RH WIND       PRES   REMARKS
CENTRAL PARK   CLEAR     49  27  42 W8        30.21S
LAGUARDIA APRT PTCLDY    49  28  44 W7        30.19R
KENNEDY INTL   PTCLDY    47  32  56 SW9       30.21R
NEWARK/LIBERTY PTCLDY    49  28  44 SW7       30.20R
BRNX BOT. GARD   N/A    N/A N/A N/A W6        30.19F
TETERBORO      CLEAR     50  30  46 SW6       30.18S
$$

NYZ177-179-078>081-262200-
LONG ISLAND NEW YORK

CITY           SKY/WX    TMP DP  RH WIND       PRES   REMARKS
FARMINGDALE    CLEAR     49  28  44 NW6       30.19R
ISLIP          PTCLDY    48  29  47 W6        30.17R
SHIRLEY        CLEAR     48  30  49 W6        30.19R
WESTHAMPTON    CLEAR     47  30  51 W6        30.19R
MONTAUK POINT    N/A     47  33  58 SW6       30.17S
$$

NYZ052-065-067-262200-
HUDSON VALLEY

CITY           SKY/WX    TMP DP  RH WIND       PRES   REMARKS
WHITE PLAINS   CLEAR     46  28  49 W6        30.16S
NEWBURGH       CLEAR     48  32  53 W8        30.17R
MONTGOMERY     CLEAR     48  27  44 SW6       30.15S
POUGHKEEPSIE   CLEAR     50  27  40 SW6       30.16R
ALBANY         PTCLDY    45  29  53 N3        30.16F
$$

NJZ001-105-106-008-010-013-015-019>022-104-262200-
NEW JERSEY

CITY           SKY/WX    TMP DP  RH WIND       PRES   REMARKS
NEWARK/LIBERTY PTCLDY    49  28  44 SW7       30.20R
TETERBORO      CLEAR     50  30  46 SW6       30.18S
CALDWELL       CLEAR     49  27  42 VRB3      30.19S
MORRISTOWN     CLEAR     50  30  46 W6        30.19S
SOMERVILLE     CLEAR     48  29  47 MISG      30.19S
SUSSEX         CLEAR     47  27  45 W3        30.18R
ANDOVER        NOT AVBL
TRENTON        CLEAR     48  29  47 VRB7      30.21R
MILLVILLE      CLEAR     48  31  51 W8        30.24S
ATLANTIC CITY  CLEAR     49  30  48 W6        30.23S
WRIGHTSTOWN    CLEAR     48  29  49 W8        30.19F
TOMS RIVER     CLEAR     48  30  49 W6        30.22S
BELMAR         CLEAR     48  28  46 W6        30.20S
$$

PAZ047>061-062-071-262200-
EASTERN PENNSYLVANIA

CITY           SKY/WX    TMP DP  RH WIND       PRES   REMARKS
PHILADELPHIA   PTCLDY    49  31  49 W9        30.24R
ALLENTOWN      CLEAR     47  29  49 SW8       30.20S
SCRANTON       CLEAR     45  27  49 SW8       30.18R
$$

CTZ002-004>006-009-010-012-RIZ004-006-007-MAZ004-011-015-262200-
SOUTHERN NEW ENGLAND
 IN CT

CITY           SKY/WX    TMP DP  RH WIND       PRES   REMARKS
BRADLEY INTL   PTCLDY    48  28  46 NW7       30.14F
HARTFORD       CLEAR     48  28  46 SW6       30.15F
DANBURY        CLEAR     47  27  45 W3        30.17S
WTRBRY/OXFORD  CLEAR     46  28  49 NW7       30.15S
BRIDGEPORT     CLEAR     47  36  65 SW9       30.17S
MERIDEN        CLEAR     48  28  46 W5        30.16S
NEW HAVEN      CLEAR     48  34  58 SW7       30.16F
CHESTER        FAIR      46  30  53 W3        30.15S
GROTON         CLEAR     44  37  76 SW9       30.15S
WILLIMANTIC    CLEAR     48  28  46 NW6       30.14F

 IN RI

CITY           SKY/WX    TMP DP  RH WIND       PRES   REMARKS
PROVIDENCE     PTCLDY    48  29  47 W7        30.14R
BLOCK ISLAND   CLEAR     46  34  61 W12       30.14F
WESTERLY       CLEAR     49  29  46 W5        30.15S

 IN MA

CITY           SKY/WX    TMP DP  RH WIND       PRES   REMARKS
BOSTON         PTCLDY    48  30  49 W8        30.12R
WORCESTER      CLEAR     42  27  55 W12       30.10S
WESTFIELD      CLEAR     47  27  45 NW9       30.14F
PROVINCETOWN   CLEAR     46  34  61 W7        30.12S
NANTUCKET      CLEAR     45  35  68 W8        30.14R
$$

ANZ330-335-338-340-345-350-353-355-262200-
COASTAL MARINE OBSERVATIONS


STATION/POSITION TIME  SKY/WX   TEMP    WIND        PRES    VSBY  WAVE
                                AIR SEA DIR/SP/G                  HT/PER
                 (UTC)          (F)     (DEG/KT/KT) (MB)    (MI)  (FT/S)
NY HARB ENTRANCE 2100            47 45  290/  6/  6 1023.6          2/13
4S FIRE IS       2100               47                N/A           3/13
20S FIRE ISLAND  2000            47 49              1022.9          3/ 4
23SW MTP         2100                                 N/A           3/ 5
HUDSON CANYON    2100            46 55  290/ 16/ 17 1022.8          4/ 5
EXECUTION ROCKS  2100            53 42  250/  6/  8   N/A
WESTERN LI SOUND 2100            46     220/  6/  6   N/A           0
CENTRAL LI SOUND 2000            45 44  240/ 12/ 14   N/A           1/ 3
EASTERN LI SOUND NOT AVBL
ROBBINS REEF     2100            49                 1021.3
$$


>>>>>>>>>>>>>>>>>>>>>>>>>>>> KEY <<<<<<<<<<<<<<<<<<<<<<<<<<<
>                                                          <
>     SKY/WX - SKY CONDITION/PRESENT WEATHER               <
>     TMP    - TEMPERATURE IN FAHRENHEIT                   <
>     DP     - DEWPOINT IN FAHRENHEIT                      <
>     RH     - RELATIVE HUMIDITY IN PERCENT                <
>     WIND   - DIRECTION AND SPEED IN MPH                  <
>     PRES   - MEAN SEA LEVEL PRESSURE IN INCHES OF HG     <
>     WCI    - WIND CHILL INDEX                            <
>     VSB    - VISIBILITY IN MILES                         <
>     HX     - HEAT INDEX                                  <
>     TC     - TEMPERATURE IN CELSIUS                      <
>     VRB    - VARIABLE WIND DIRECTION                     <
>                                                          <
>>>>>>>>>>>>>>>>>>>>>>>>>>>> KEY <<<<<<<<<<<<<<<<<<<<<<<<<<<




USA.gov is the U.S. government's official web portal to all federal, state and local government web resources and services.